Find Starlink 30105

NORAD ID: 57433 Int'l Des: 2023-105 Owner: SPXS Country: US Constellation: starlink operational
LEOCIRCULAR

Live Position

Loading 3D Globe...

About Starlink 30105

Description loading...

Upcoming Passes

Passes for default location (London). Set your location on the main map for personalized predictions.

Altitude History

Loading altitude history...

Two-Line Element Set

1 57433U 23105D 26125.82535204 -.00000950 00000-0 -25013-4 0 9999
2 57433 43.0084 68.1603 0001995 264.9228 95.1396 15.27564455157060
Epoch: May 5, 2026 • Age: 6 hours

Current Status

Altitude 484.3 km
Velocity 7.63 km/s
Sub-Earth Point 27.66°N, 157.42°W
Launch Date Jul 24, 2023
Age 2.7 years
Type internet

Technical Details

Classification Payload
Mass 730.00 kg
Dry Mass 700.00 kg
Total Mass 730.00 kg
Length 0.30 m
Diameter 4.10 m
Span 29.00 m
Shape Box + pan
Manufacturer SPXS
Bus Type Starlink V2M
Phase Status In Orbit
Owner/State SPXS/US

Most Searched